Time,TemperatureF,DewpointF,PressureIn,WindDirection,WindDirectionDegrees,WindSpeedMPH,WindSpeedGustMPH,Humidity,HourlyPrecipIn,Conditions,Clouds,dailyrainin,SoftwareType,DateUTC
2013-03-08 00:02:00,45.2,44.0,29.84,ENE,59,0.0,-999.0,95,-99.99,,,0.00,weatherlink.com 1.10,2013-03-08 08:02:00,
2013-03-08 00:17:00,45.1,44.0,29.84,ENE,59,0.0,-999.0,95,-99.99,,,0.00,weatherlink.com 1.10,2013-03-08 08:17:00,
2013-03-08 00:32:00,45.0,44.0,29.84,ENE,59,0.0,-999.0,95,-99.99,,,0.00,weatherlink.com 1.10,2013-03-08 08:32:00,
2013-03-08 00:47:00,44.9,44.0,29.84,ENE,59,0.0,-999.0,95,-99.99,,,0.00,weatherlink.com 1.10,2013-03-08 08:47:00,
2013-03-08 01:02:00,44.9,44.0,29.84,ENE,59,0.0,-999.0,95,-99.99,,,0.00,weatherlink.com 1.10,2013-03-08 09:02:00,
2013-03-08 01:17:00,44.9,44.0,29.84,ENE,59,0.0,-999.0,96,-99.99,,,0.00,weatherlink.com 1.10,2013-03-08 09:17:00,
2013-03-08 01:32:00,44.9,44.0,29.84,ENE,59,0.0,-999.0,96,-99.99,,,0.00,weatherlink.com 1.10,2013-03-08 09:32:00,
2013-03-08 01:47:00,44.8,44.0,29.84,ENE,59,0.0,-999.0,96,-99.99,,,0.00,weatherlink.com 1.10,2013-03-08 09:47:00,
2013-03-08 02:02:00,44.7,44.0,29.84,ENE,59,0.0,-999.0,96,-99.99,,,0.00,weatherlink.com 1.10,2013-03-08 10:02:00,
2013-03-08 02:17:00,44.6,43.0,29.83,ENE,59,0.0,-999.0,95,-99.99,,,0.00,weatherlink.com 1.10,2013-03-08 10:17:00,
2013-03-08 02:32:00,44.3,43.0,29.83,ENE,59,0.0,-999.0,95,-99.99,,,0.00,weatherlink.com 1.10,2013-03-08 10:32:00,
2013-03-08 02:48:00,43.9,43.0,29.82,ENE,59,0.0,-999.0,95,-99.99,,,0.00,weatherlink.com 1.10,2013-03-08 10:48:00,
2013-03-08 03:03:00,43.4,42.0,29.82,ENE,59,0.0,-999.0,95,-99.99,,,0.00,weatherlink.com 1.10,2013-03-08 11:03:00,
2013-03-08 03:18:00,43.2,42.0,29.82,ENE,59,0.0,-999.0,95,-99.99,,,0.00,weatherlink.com 1.10,2013-03-08 11:18:00,
2013-03-08 03:33:00,42.7,41.0,29.82,ENE,59,0.0,-999.0,95,-99.99,,,0.00,weatherlink.com 1.10,2013-03-08 11:33:00,
2013-03-08 03:48:00,42.2,41.0,29.82,ENE,59,0.0,-999.0,95,-99.99,,,0.00,weatherlink.com 1.10,2013-03-08 11:48:00,
2013-03-08 04:03:00,41.6,40.0,29.82,ENE,59,0.0,-999.0,95,-99.99,,,0.00,weatherlink.com 1.10,2013-03-08 12:03:00,
2013-03-08 04:18:00,41.2,40.0,29.82,ENE,59,0.0,-999.0,95,-99.99,,,0.00,weatherlink.com 1.10,2013-03-08 12:18:00,
2013-03-08 04:33:00,40.8,40.0,29.82,ENE,59,0.0,-999.0,95,-99.99,,,0.00,weatherlink.com 1.10,2013-03-08 12:33:00,
2013-03-08 04:48:00,40.5,39.0,29.82,ENE,59,0.0,-999.0,95,-99.99,,,0.00,weatherlink.com 1.10,2013-03-08 12:48:00,
2013-03-08 05:03:00,40.2,39.0,29.82,ENE,59,0.0,-999.0,95,-99.99,,,0.00,weatherlink.com 1.10,2013-03-08 13:03:00,
2013-03-08 05:18:00,39.9,39.0,29.82,ENE,59,0.0,-999.0,96,-99.99,,,0.00,weatherlink.com 1.10,2013-03-08 13:18:00,
2013-03-08 05:33:00,39.8,39.0,29.82,ENE,59,0.0,-999.0,96,-99.99,,,0.00,weatherlink.com 1.10,2013-03-08 13:33:00,
2013-03-08 05:48:00,39.7,39.0,29.82,ENE,59,0.0,-999.0,96,-99.99,,,0.00,weatherlink.com 1.10,2013-03-08 13:48:00,
2013-03-08 06:03:00,39.7,39.0,29.83,ENE,59,0.0,-999.0,96,-99.99,,,0.00,weatherlink.com 1.10,2013-03-08 14:03:00,
2013-03-08 06:18:00,39.5,39.0,29.83,ENE,59,0.0,-999.0,96,-99.99,,,0.00,weatherlink.com 1.10,2013-03-08 14:18:00,
2013-03-08 06:33:00,39.4,38.0,29.83,ENE,59,0.0,-999.0,96,-99.99,,,0.00,weatherlink.com 1.10,2013-03-08 14:33:00,
2013-03-08 06:48:00,39.5,39.0,29.84,ENE,59,0.0,-999.0,96,-99.99,,,0.00,weatherlink.com 1.10,2013-03-08 14:48:00,
2013-03-08 07:03:00,39.6,39.0,29.84,ENE,59,0.0,-999.0,96,-99.99,,,0.00,weatherlink.com 1.10,2013-03-08 15:03:00,
2013-03-08 07:18:00,39.9,39.0,29.85,ENE,59,0.0,-999.0,96,-99.99,,,0.00,weatherlink.com 1.10,2013-03-08 15:18:00,
2013-03-08 07:33:00,40.6,40.0,29.85,ENE,59,0.0,-999.0,97,-99.99,,,0.00,weatherlink.com 1.10,2013-03-08 15:33:00,
2013-03-08 07:48:00,41.6,41.0,29.85,ENE,59,0.0,-999.0,97,-99.99,,,0.00,weatherlink.com 1.10,2013-03-08 15:48:00,
2013-03-08 08:03:00,42.8,42.0,29.85,ENE,59,0.0,-999.0,97,-99.99,,,0.00,weatherlink.com 1.10,2013-03-08 16:03:00,
2013-03-08 08:18:00,45.2,44.0,29.85,ENE,59,0.0,-999.0,97,-99.99,,,0.00,weatherlink.com 1.10,2013-03-08 16:18:00,
2013-03-08 08:33:00,46.1,45.0,29.86,ENE,59,0.0,-999.0,97,-99.99,,,0.00,weatherlink.com 1.10,2013-03-08 16:33:00,
2013-03-08 08:48:00,46.1,45.0,29.86,ENE,59,0.0,-999.0,97,-99.99,,,0.00,weatherlink.com 1.10,2013-03-08 16:48:00,
2013-03-08 09:03:00,46.6,46.0,29.86,ENE,59,0.0,-999.0,97,-99.99,,,0.00,weatherlink.com 1.10,2013-03-08 17:03:00,
2013-03-08 09:18:00,47.5,47.0,29.87,ENE,59,0.0,-999.0,97,-99.99,,,0.00,weatherlink.com 1.10,2013-03-08 17:18:00,
2013-03-08 09:33:00,49.8,49.0,29.87,ENE,59,0.0,-999.0,97,-99.99,,,0.00,weatherlink.com 1.10,2013-03-08 17:33:00,
2013-03-08 09:48:00,51.3,49.0,29.87,SSE,155,0.0,-999.0,90,-99.99,,,0.00,weatherlink.com 1.10,2013-03-08 17:48:00,
2013-03-08 10:18:00,56.2,50.0,29.87,South,180,2.0,-999.0,79,-99.99,,,0.00,weatherlink.com 1.10,2013-03-08 18:18:00,
2013-03-08 10:34:00,58.0,49.0,29.87,SE,145,0.0,-999.0,71,-99.99,,,0.00,weatherlink.com 1.10,2013-03-08 18:34:00,
2013-03-08 10:49:00,58.8,47.0,29.86,SSW,201,1.0,-999.0,65,-99.99,,,0.00,weatherlink.com 1.10,2013-03-08 18:49:00,
2013-03-08 11:04:00,60.6,47.0,29.87,SE,141,1.0,-999.0,61,-99.99,,,0.00,weatherlink.com 1.10,2013-03-08 19:04:00,
2013-03-08 11:19:00,62.5,47.0,29.87,SSW,198,0.0,-999.0,58,-99.99,,,0.00,weatherlink.com 1.10,2013-03-08 19:19:00,
2013-03-08 11:34:00,63.5,43.0,29.86,North,355,2.0,-999.0,48,-99.99,,,0.00,weatherlink.com 1.10,2013-03-08 19:34:00,
2013-03-08 11:49:00,64.2,44.0,29.87,ESE,123,1.0,-999.0,48,-99.99,,,0.00,weatherlink.com 1.10,2013-03-08 19:49:00,
2013-03-08 12:04:00,64.9,43.0,29.86,SW,228,1.0,-999.0,46,-99.99,,,0.00,weatherlink.com 1.10,2013-03-08 20:04:00,
2013-03-08 12:19:00,65.3,43.0,29.86,SSW,200,3.0,-999.0,44,-99.99,,,0.00,weatherlink.com 1.10,2013-03-08 20:19:00,
2013-03-08 12:34:00,65.5,42.0,29.86,SE,141,0.0,-999.0,42,-99.99,,,0.00,weatherlink.com 1.10,2013-03-08 20:34:00,
2013-03-08 12:49:00,66.2,42.0,29.85,SW,220,1.0,-999.0,41,-99.99,,,0.00,weatherlink.com 1.10,2013-03-08 20:49:00,
2013-03-08 13:04:00,66.9,43.0,29.85,SSW,213,3.0,-999.0,42,-99.99,,,0.01,weatherlink.com 1.10,2013-03-08 21:04:00,
2013-03-08 13:19:00,67.3,45.0,29.84,SSE,164,1.0,-999.0,44,-99.99,,,0.01,weatherlink.com 1.10,2013-03-08 21:19:00,
2013-03-08 13:34:00,66.7,43.0,29.84,East,88,0.0,-999.0,42,-99.99,,,0.01,weatherlink.com 1.10,2013-03-08 21:34:00,
2013-03-08 13:49:00,66.7,42.0,29.84,North,360,4.0,-999.0,41,-99.99,,,0.01,weatherlink.com 1.10,2013-03-08 21:49:00,
2013-03-08 14:04:00,65.9,42.0,29.84,South,174,2.0,-999.0,42,-99.99,,,0.01,weatherlink.com 1.10,2013-03-08 22:04:00,
2013-03-08 14:19:00,65.9,45.0,29.85,SW,227,2.0,-999.0,47,-99.99,,,0.01,weatherlink.com 1.10,2013-03-08 22:19:00,
2013-03-08 14:34:00,66.3,46.0,29.85,NE,46,1.0,-999.0,49,-99.99,,,0.01,weatherlink.com 1.10,2013-03-08 22:34:00,
2013-03-08 14:49:00,66.0,43.0,29.85,East,80,2.0,-999.0,44,-99.99,,,0.01,weatherlink.com 1.10,2013-03-08 22:49:00,
2013-03-08 15:04:00,66.3,46.0,29.85,SE,145,2.0,-999.0,48,-99.99,,,0.01,weatherlink.com 1.10,2013-03-08 23:04:00,
2013-03-08 15:19:00,66.9,44.0,29.86,South,187,3.0,-999.0,43,-99.99,,,0.01,weatherlink.com 1.10,2013-03-08 23:19:00,
2013-03-08 15:34:00,66.4,43.0,29.86,SE,131,1.0,-999.0,43,-99.99,,,0.01,weatherlink.com 1.10,2013-03-08 23:34:00,
2013-03-08 15:49:00,63.9,44.0,29.86,South,181,0.0,-999.0,48,-99.99,,,0.01,weatherlink.com 1.10,2013-03-08 23:49:00,
2013-03-08 16:04:00,64.6,42.0,29.86,SSE,153,2.0,-999.0,44,-99.99,,,0.01,weatherlink.com 1.10,2013-03-09 00:04:00,
2013-03-08 16:19:00,64.5,43.0,29.86,South,187,0.0,-999.0,46,-99.99,,,0.01,weatherlink.com 1.10,2013-03-09 00:19:00,
2013-03-08 16:34:00,63.0,43.0,29.87,SSW,194,0.0,-999.0,48,-99.99,,,0.01,weatherlink.com 1.10,2013-03-09 00:34:00,
2013-03-08 16:49:00,61.3,41.0,29.86,NNE,32,0.0,-999.0,47,-99.99,,,0.01,weatherlink.com 1.10,2013-03-09 00:49:00,
2013-03-08 17:04:00,58.0,41.0,29.87,SSE,153,0.0,-999.0,54,-99.99,,,0.01,weatherlink.com 1.10,2013-03-09 01:04:00,
2013-03-08 17:19:00,56.1,41.0,29.87,NE,42,2.0,-999.0,57,-99.99,,,0.01,weatherlink.com 1.10,2013-03-09 01:19:00,
2013-03-08 17:34:00,54.1,41.0,29.87,South,174,3.0,-999.0,62,-99.99,,,0.01,weatherlink.com 1.10,2013-03-09 01:34:00,
2013-03-08 17:49:00,52.7,40.0,29.88,NNE,18,2.0,-999.0,63,-99.99,,,0.01,weatherlink.com 1.10,2013-03-09 01:49:00,
2013-03-08 18:04:00,52.2,40.0,29.89,SE,144,0.0,-999.0,63,-99.99,,,0.01,weatherlink.com 1.10,2013-03-09 02:04:00,
2013-03-08 18:19:00,52.0,39.0,29.89,SW,215,3.0,-999.0,61,-99.99,,,0.01,weatherlink.com 1.10,2013-03-09 02:19:00,
2013-03-08 18:34:00,51.8,38.0,29.90,SSE,150,1.0,-999.0,60,-99.99,,,0.01,weatherlink.com 1.10,2013-03-09 02:34:00,
2013-03-08 18:49:00,51.3,39.0,29.91,North,10,0.0,-999.0,63,-99.99,,,0.01,weatherlink.com 1.10,2013-03-09 02:49:00,
2013-03-08 19:04:00,50.9,39.0,29.92,South,181,0.0,-999.0,65,-99.99,,,0.01,weatherlink.com 1.10,2013-03-09 03:04:00,
2013-03-08 19:19:00,50.3,40.0,29.93,West,273,4.0,-999.0,67,-99.99,,,0.01,weatherlink.com 1.10,2013-03-09 03:19:00,
2013-03-08 19:34:00,50.0,40.0,29.94,SE,132,1.0,-999.0,68,-99.99,,,0.01,weatherlink.com 1.10,2013-03-09 03:34:00,
2013-03-08 19:49:00,49.6,41.0,29.95,East,86,0.0,-999.0,71,-99.99,,,0.01,weatherlink.com 1.10,2013-03-09 03:49:00,
2013-03-08 20:31:00,48.2,41.0,29.98,NNW,335,0.0,-999.0,76,-99.99,,,0.01,weatherlink.com 1.10,2013-03-09 04:31:00,
2013-03-08 20:49:00,48.3,41.0,29.98,NNE,19,2.0,-999.0,77,-99.99,,,0.01,weatherlink.com 1.10,2013-03-09 04:49:00,
2013-03-08 21:04:00,48.2,43.0,29.98,East,101,0.0,-999.0,81,-99.99,,,0.01,weatherlink.com 1.10,2013-03-09 05:04:00,
2013-03-08 21:19:00,48.1,41.0,29.98,East,100,2.0,-999.0,77,-99.99,,,0.01,weatherlink.com 1.10,2013-03-09 05:19:00,
2013-03-08 21:34:00,47.8,41.0,29.99,NE,35,0.0,-999.0,78,-99.99,,,0.01,weatherlink.com 1.10,2013-03-09 05:34:00,
2013-03-08 21:49:00,47.2,41.0,29.99,NE,35,0.0,-999.0,79,-99.99,,,0.01,weatherlink.com 1.10,2013-03-09 05:49:00,
2013-03-08 22:04:00,46.4,41.0,30.00,NE,35,0.0,-999.0,81,-99.99,,,0.01,weatherlink.com 1.10,2013-03-09 06:04:00,
2013-03-08 22:20:00,45.5,41.0,30.00,NE,35,1.0,-999.0,83,-99.99,,,0.01,weatherlink.com 1.10,2013-03-09 06:20:00,
2013-03-08 22:34:00,44.6,40.0,30.00,NE,35,0.0,-999.0,84,-99.99,,,0.01,weatherlink.com 1.10,2013-03-09 06:34:00,
2013-03-08 22:50:00,43.8,40.0,30.00,NNW,337,0.0,-999.0,86,-99.99,,,0.01,weatherlink.com 1.10,2013-03-09 06:50:00,
2013-03-08 23:05:00,43.3,40.0,30.00,NNW,337,0.0,-999.0,88,-99.99,,,0.01,weatherlink.com 1.10,2013-03-09 07:05:00,
2013-03-08 23:20:00,42.9,40.0,30.01,NNW,337,0.0,-999.0,89,-99.99,,,0.01,weatherlink.com 1.10,2013-03-09 07:20:00,
2013-03-08 23:35:00,42.4,39.0,30.02,NNW,337,0.0,-999.0,89,-99.99,,,0.01,weatherlink.com 1.10,2013-03-09 07:35:00,
2013-03-08 23:50:00,42.0,39.0,30.02,WNW,288,0.0,-999.0,90,-99.99,,,0.01,weatherlink.com 1.10,2013-03-09 07:50:00,